Terminal Aerodrome Forecast
Issued by NWS Knoxville/Tri Cities, TN

Home | Current Version | Previous Version | Text Only | Print | Product List | Glossary On
Versions: 1 2 3 4 5 6 7 8 9 10 11 12 13 14 15 16 17 18 19 20 21 22 23 24 25
000
FTUS44 KMRX 300522
TAFTRI
TAF
KTRI 300522Z 3006/3106 00000KT P6SM BKN200
     FM300900 00000KT 6SM BR SCT060 BKN150
     FM301300 16005KT P6SM SCT050 BKN150
     FM310200 00000KT P6SM SCT050 BKN100=

USA.gov is the U.S. government's official web portal to all federal, state and local government web resources and services.